Dubuque, IA

5:07 PM CDT on May 22, 2018 (GMT -0500)
Dubuque Regional

Weather History for KDBQ - May, 2013

Change the Weather History Date:

Monday, May 6, 2013

  Actual Average Record
Temperature  
Mean Temperature 61 °F 56 °F  
Max Temperature 74 °F 66 °F 95 °F (1934)
Min Temperature 47 °F 45 °F 28 °F (1954)
Degree Days  
Heating Degree Days 4 10  
Month to date heating degree days 73 63  
Since 1 July heating degree days 7113 6884  
Cooling Degree Days 0 0  
Month to date cooling degree days 0 0  
Year to date cooling degree days 8 5  
Growing Degree Days 10 (Base 50)    
Moisture  
Dew Point 47 °F    
Average Humidity 61    
Maximum Humidity 86    
Minimum Humidity 35    
Precipitation  
Precipitation 0.00 in 0.13 in 4.37 in (1960)
Month to date precipitation 2.22 0.80  
Year to date precipitation 16.75 9.48  
Snow  
Snow 0.00 in 0.00 in - ()
Month to date snowfall 0.0 0.1  
Since 1 July snowfall 54.5 42.0  
Snow Depth 0.00 in    
Sea Level Pressure  
Sea Level Pressure 30.03 in    
Wind  
Wind Speed 3 mph (NE)    
Max Wind Speed 12 mph    
Max Gust Speed 16 mph    
Visibility 10 miles    
Events      
T = Trace of Precipitation, MM = Missing Value Source: NWS Daily Summary

Daily Weather History Graph

Daily Weather History Graph

Search for Another Location

Airport or City:

Astronomy

May. 06, 2013 Rise Set
Actual Time 5:51 AM CDT 8:08 PM CDT
Civil Twilight 5:19 AM CDT 8:39 PM CDT
Nautical Twilight 4:41 AM CDT 9:18 PM CDT
Astronomical Twilight 3:58 AM CDT 10:01 PM CDT
Moon 3:57 AM CDT (5/6) 5:05 PM CDT (5/6)
Length of Visible Light 15h 19m
Length of Day
14h 17m
Waning Crescent, 11% of the Moon is Illuminated
May 6
Waning Crescent
May 9
New
May 17
First Quarter
May 24
Full
May 31
Last Quarter

Hourly Weather History & Observations

Time (CDT) Temp. Dew Point Humidity Pressure Visibility Wind Dir Wind Speed Gust Speed Precip Events Conditions
12:53 AM 54.0 °F 44.1 °F 69% 30.03 in 10.0 mi East 4.6 mph - N/A   Clear
1:53 AM 53.1 °F 45.0 °F 74% 30.03 in 10.0 mi Calm Calm - N/A   Mostly Cloudy
2:53 AM 53.1 °F 44.1 °F 71% 30.03 in 10.0 mi ENE 4.6 mph - N/A   Clear
3:53 AM 52.0 °F 44.1 °F 74% 30.04 in 10.0 mi East 3.5 mph - N/A   Clear
4:53 AM 51.1 °F 45.0 °F 80% 30.04 in 10.0 mi Calm Calm - N/A   Clear
5:53 AM 48.9 °F 45.0 °F 86% 30.06 in 10.0 mi Calm Calm - N/A   Clear
6:53 AM 52.0 °F 46.9 °F 83% 30.06 in 10.0 mi NNE 3.5 mph - N/A   Clear
7:53 AM 57.0 °F 48.0 °F 72% 30.07 in 10.0 mi North 4.6 mph - N/A   Clear
8:53 AM 63.0 °F 50.0 °F 63% 30.08 in 10.0 mi North 4.6 mph - N/A   Clear
9:53 AM 64.9 °F 48.0 °F 54% 30.08 in 10.0 mi NNE 5.8 mph - N/A   Clear
10:53 AM 68.0 °F 48.0 °F 49% 30.07 in 10.0 mi NNE 6.9 mph - N/A   Clear
11:53 AM 69.1 °F 46.9 °F 45% 30.06 in 10.0 mi NNE 6.9 mph - N/A   Clear
12:53 PM 71.1 °F 46.9 °F 42% 30.04 in 10.0 mi North 5.8 mph - N/A   Clear
1:53 PM 73.0 °F 44.1 °F 35% 30.03 in 10.0 mi Calm Calm - N/A   Clear
2:53 PM 73.9 °F 46.9 °F 38% 30.01 in 10.0 mi ENE 4.6 mph - N/A   Partly Cloudy
3:53 PM 73.0 °F 46.9 °F 39% 30.00 in 10.0 mi Variable 3.5 mph - N/A   Partly Cloudy
4:53 PM 72.0 °F 46.0 °F 40% 30.00 in 10.0 mi East 3.5 mph - N/A   Overcast
5:53 PM 71.1 °F 46.0 °F 41% 30.00 in 10.0 mi NNW 4.6 mph - N/A   Overcast
6:53 PM 72.0 °F 44.1 °F 37% 29.99 in 10.0 mi East 5.8 mph - N/A   Overcast
7:53 PM 68.0 °F 50.0 °F 52% 30.00 in 10.0 mi SE 3.5 mph - N/A   Overcast
8:53 PM 64.0 °F 50.0 °F 60% 30.01 in 10.0 mi Calm Calm - N/A   Mostly Cloudy
9:53 PM 59.0 °F 52.0 °F 78% 30.02 in 10.0 mi Calm Calm - N/A   Clear
10:53 PM 57.9 °F 48.9 °F 72% 30.02 in 10.0 mi Calm Calm - N/A   Clear
11:53 PM 57.0 °F 48.0 °F 72% 30.02 in 10.0 mi Calm Calm - N/A   Mostly Cloudy